Tracking 35030 objects as of 9-Aug-2026
HD Live streaming from Space Station
objects crossing your sky now

COSMOS 57 DEB


COSMOS 57 DEB is no longer on orbit


NORAD ID: 1103
Int'l Code: 1965-012F
Launch date: February 22, 1965
Source: Commonwealth of Independent States (former USSR) (CIS)
Launch site: TYURATAM MISSILE AND SPACE COMPLEX (TTMTR)
Decay date: 1965-03-02

Note: This is SATELLITE DEBRIS
Your satellite tracking list
Your tracking list is empty




NASA's NSSDC Master Catalog

Two Line Element Set (TLE):
1 01103U 65012  F 65056.14027475  .00450031 +64613-3 +00000-0 0  9997
2 01103 064.6042 289.2571 0037740 032.8844 327.4137 16.29909777000467
Source of the keplerian elements: AFSPC